Regional Weather Roundup
Issued by NWS

Home | Current Version | Previous Version | Text Only | Print | Product List | Glossary Off
Versions: 1 2 3 4 5 6 7 8 9 10 11 12 13 14 15 16 17 18 19 20 21 22 23 24 25 26 27 28 29 30 31 32 33 34 35 36 37 38 39 40 41 42 43 44 45 46 47 48 49 50

000
ASUS43 KMKX 251711
RWRWI

WISCONSIN REGIONAL WEATHER ROUNDUP
NATIONAL WEATHER SERVICE MILWAUKEE/SULLIVAN WI
1200 PM CDT SUN SEP 25 2016

NOTE: "FAIR" INDICATES FEW OR NO CLOUDS BELOW 12,000 FEET WITH NO
SIGNIFICANT WEATHER AND/OR OBSTRUCTIONS TO VISIBILITY.

WIZ001-002-006>008-014>016-023>028-251800-
NORTHWEST WISCONSIN

CITY           SKY/WX    TMP DP  RH WIND       PRES   REMARKS
SUPERIOR ARPT  PTSUNNY   67  62  85 SW12      29.78F
ASHLAND        LGT RAIN  66  63  90 S8        29.82F
HAYWARD        LGT RAIN  64  62  93 SW13      29.86R
SIREN          CLOUDY    65  57  75 SW13G20   29.85S
CUMBERLAND     PTSUNNY   63  59  88 SW7       29.86F
RICE LAKE      PTSUNNY   64  60  84 SW9       29.88F
CHETEK         NOT AVBL
LADYSMITH      CLOUDY    66  65  94 S10G16    29.89F FOG
EAU CLAIRE     CLOUDY    65  61  87 SW12      29.88S
MENOMONIE      PTSUNNY   65  64  99 SW8       29.89S
NEW RICHMOND   PTSUNNY   64  54  69 W13       29.88S
OSCEOLA        PTSUNNY   66  56  70 W15       29.91S
$$

WIZ003>005-009-010-017-018-251800-
NORTH CENTRAL WISCONSIN

CITY           SKY/WX    TMP DP  RH WIND       PRES   REMARKS
MANITOWISH WTR NOT AVBL
ARBOR VITAE    LGT RAIN  63  62  96 SE10      29.92F
WOODRUFF       LGT RAIN  63  62  96 SE10      29.92F
RHINELANDER    LGT RAIN  63  63 100 SE8       29.95F
EAGLE RIVER    RAIN      61  61 100 SE6       29.94F
LAND O LAKES   CLOUDY    62  61  97 SE8       29.95F
PHILLIPS       CLOUDY    63  63  99 SE10G16   29.89F
TOMAHAWK       CLOUDY    62  60  96 S3        29.94F FOG
MEDFORD        CLOUDY   N/A N/A N/A S10       29.92F HAZE
MERRILL        DRIZZLE   63  63 100 SE8       29.95F
$$

WIZ029-030-035-036-043>047-251800-
CENTRAL WISCONSIN

CITY           SKY/WX    TMP DP  RH WIND       PRES   REMARKS
WAUSAU         LGT RAIN  64  63  96 SE8       29.94F FOG
MOSINEE        CLOUDY    64  64 100 S8        29.96F FOG
MARSHFIELD     CLOUDY    68  64  87 S7        29.93F FOG
STEVENS POINT  CLOUDY    65  65 100 CALM      29.95F FOG
WAUPACA        MOSUNNY   78  68  71 S10G18    29.95F HX  80
WAUTOMA        PTSUNNY   76  67  73 S10       29.95F
WISC RAPIDS    LGT RAIN  70  68  93 S6        29.96F FOG
CAMP DOUGLAS   CLOUDY    74  67  80 SW7       29.93F
$$

WIZ011>013-019>022-031-037>040-048>050-251800-
NORTHEAST WISCONSIN

CITY           SKY/WX    TMP DP  RH WIND       PRES   REMARKS
ANTIGO         LGT RAIN  62  62 100 CALM      29.97F
SHAWANO        PTSUNNY   76  67  71 S12       29.95F
OCONTO         NOT AVBL
STURGEON BAY   CLOUDY    68  62  81 S21G28    30.00F
GREEN BAY      CLOUDY    73  67  81 SE15      29.97F
MANITOWOC      CLOUDY    70  62  76 S18G25    30.02F
APPLETON       PTSUNNY   72  63  73 S15       29.96F
CLINTONVILLE   NOT AVBL
OSHKOSH        PTSUNNY   76  66  71 S13G22    29.96F
$$

WIZ032>034-041-042-053>061-251800-
SOUTHWEST WISCONSIN

CITY           SKY/WX    TMP DP  RH WIND       PRES   REMARKS
LA CROSSE      CLOUDY    72  68  87 S13       29.91F
SPARTA         CLOUDY    70  66  87 S6        29.93F
VIROQUA        CLOUDY    70  67  89 SW9       29.95F
BOSCOBEL       PTSUNNY   76  67  73 W9        29.95F
PRAIRIE DU CHI CLOUDY    75  67  76 SW9       29.95F
PLATTEVILLE    CLOUDY    78  71  79 SW12      29.98S
$$

WIZ056-057-062-063-064-067-068-251800-
SOUTH CENTRAL WISCONSIN

CITY           SKY/WX    TMP DP  RH WIND       PRES   REMARKS
REEDSBURG      NOT AVBL
BARABOO/DELLS  PTSUNNY   74  67  79 S9        29.96S
LONE ROCK      CLOUDY    75  69  81 S8        29.95F
MINERAL POINT  PTSUNNY   79  70  73 SW10G17   29.98S HX  81
MADISON        PTSUNNY   78  68  71 S16       29.95F HX  80
MIDDLETON      PTSUNNY   76  69  79 SW8       29.97S
WATERTOWN      SUNNY     77  68  74 SE10G18   29.98F
MONROE         LGT RAIN  73  68  83 S10G20    29.98S
JANESVILLE     MOSUNNY   81  66  61 S12       29.98F HX  83
$$

WIZ051-052-058>065-066-070>072-251800-
SOUTHEAST WISCONSIN

CITY           SKY/WX    TMP DP  RH WIND       PRES   REMARKS
MILWAUKEE      CLOUDY    73  63  70 S13       30.02F
WAUKESHA       SUNNY     73  64  73 SE12      30.03F
MILWAUKEE/TIMM SUNNY     73  59  60 SE8       30.03F
RACINE         MOSUNNY   71  60  68 S15       30.05F
BURLINGTON     MOSUNNY   75  64  67 S7        30.02F
KENOSHA        CLOUDY    73  63  70 SE10      30.04F
FOND DU LAC    MOSUNNY   77  66  68 S16       29.98F
SHEBOYGAN      CLOUDY    70  61  73 S16G24    30.03F
WEST BEND      MOSUNNY   72  63  73 SE8       30.01F
JUNEAU         SUNNY     76  67  73 SE13      30.00F
$$

LSZ147-162-251800-
LAKE SUPERIOR

STATION/POSITION TIME  TEMP    WIND        PRES    WAVE
                       AIR SEA DIR/SP/G            HT/PER
                 (UTC) (F)     (DEG/KT/KT) (MB)    (FT/S)
W MID LAKE BUOY  1650   63 61  160/ 17/ 21 1009.5F   3/ 4
DEVILS ISLAND    1600   64     160/ 12/ 18 1010.0F
SAXON HARBOR     1600   67     190/  8/ 17 1010.5
$$

LMZ867-665-643>646-251800-
LAKE MICHIGAN

STATION/POSITION TIME  TEMP    WIND        PRES    WAVE
                       AIR SEA DIR/SP/G            HT/PER
                 (UTC) (F)     (DEG/KT/KT) (MB)    (FT/S)
CHAMBERS ISLAND  1600   66     130/  9/ 15 1016.6F
S GREEN BAY BUOY 1600   67 66  170/ 14/ 17 1015.6F
N MID LAKE BUOY  1650   65 67  160/ 19/ 21 1016.8F   4/ 5
NORTHPORT PIER   1600   65     150/ 14/ 20 1017.3F
SISTER BAY       1638   67     170/ 18/ 22   N/A
KEWAUNEE LAKESHO 1600   65     160/ 17/ 21 1016.8F
SHEBOYGAN LAKESH 1700   63     160/ 12/ 13 1016.4F
PORT WASHINGTON  1640   66     170/  8/ 11 1017.6F
ATWATER BUOY     1700   62 53  160/ 12/ 16 1016.7F
MILWAUKEE LAKESH 1610   63     150/ 14/ 16   N/A
S MID LAKE BUOY  1650   69 72  130/ 19/ 21 1017.3F   4/ 5
KENOSHA   LAKESH 1700   66     170/ 12/ 15 1016.9F
$$

TC  - TEMPERATURE IN CELSIUS
VSB - VISIBILITY IN STATUTE MILES
WCI - WIND CHILL INDEX
HX  - HEAT INDEX




USA.gov is the U.S. government's official web portal to all federal, state and local government web resources and services.